Regional Weather Roundup
Issued by NWS

Home | Current Version | Previous Version | Graphics & Text | Print | Product List | Glossary On
Versions: 1 2 3 4 5 6 7 8 9 10 11 12 13 14 15 16 17 18 19 20 21 22 23 24 25 26 27 28 29 30 31 32 33 34 35 36 37 38 39 40 41 42 43 44 45 46 47 48 49 50
000
ASUS43 KDTX 231901
RWRMI
MICHIGAN HOURLY REGIONAL WEATHER ROUNDUP
NATIONAL WEATHER SERVICE DETROIT/PONTIAC MI
300 PM EDT SAT JUL 23 2016

NOTE: "FAIR" INDICATES FEW OR NO CLOUDS BELOW 12,000 FEET WITH NO
SIGNIFICANT WEATHER AND/OR OBSTRUCTION TO VISIBILITY.

MIZ047>049-052>055-059>063-066>070-074>076-081>083-232000-
SOUTHEAST LOWER MICHIGAN

CITY           SKY/WX    TMP DP  RH WIND       PRES   REMARKS
ADRIAN         PTSUNNY   90  66  45 SW7       29.99F HX  92
ALMA           SUNNY     90  56  31 CALM      29.99F
ANN ARBOR      SUNNY     95  62  33 N8        29.98F HX  96
BAD AXE        SUNNY     87  55  33 E3        30.00F
CARO           SUNNY     91  58  32 NE3       29.99S
DETROIT CITY   PTSUNNY   92  63  38 E10       29.96F HX  93
DETROIT        MOSUNNY   94  60  32 W5        29.97F HX  94
FLINT          SUNNY     96  53  23 CALM      29.99S HX  93
GROSSE ILE     SUNNY     86  72  64 S9        29.96F HX  92
HOWELL         SUNNY     91  56  31 NE7       30.00S

CITY           SKY/WX    TMP DP  RH WIND       PRES   REMARKS
JACKSON        SUNNY     91  59  33 CALM      30.00F HX  90
LAMBERTVILLE   SUNNY     94  69  45 N5        29.98S HX  99
LANSING        SUNNY     91  59  33 MISG      30.00S HX  90
LAPEER         FAIR      91  56  31 NW5       30.00S
MASON          SUNNY     91  62  38 CALM      29.99F HX  91
MONROE         SUNNY     90  67  47 E3        29.97F HX  93
MT. CLEMENS    MOSUNNY   90  63  40 E9        29.95F HX  91
PONTIAC        MOSUNNY   91  59  33 VRB5      29.99F HX  90
PORT HURON     SUNNY     86  64  48 NE12      29.99S
TRI CITIES     SUNNY     89  61  38 VRB3      30.00S
MIDLAND        FAIR      91  57  31 CALM      29.98S HX  90
TROY           SUNNY     94  54  25 N7        29.99F HX  91
SAGINAW HB     SUNNY     90  52  27 N3        29.99F
$$
MIZ043>046-050>051-056>058-064>065-071>073-077>080-232000-
SOUTHWEST LOWER MICHIGAN

CITY           SKY/WX    TMP DP  RH WIND       PRES   REMARKS
BATTLE CREEK   MOSUNNY   86  69  56 SW7       30.02R HX  90
BENTON HARBOR  CLOUDY    89  71  55 VRB3      29.99S HX  95
BIG RAPIDS     SUNNY     91  54  28 W3        30.00S
COLDWATER      MOSUNNY   89  62  40 CALM      30.01S
FREMONT        FAIR      91  58  33 NE5       29.99S
HOLLAND        MOSUNNY   89  71  55 W9        30.00S HX  95
GRAND RAPIDS   PTSUNNY   90  63  40 E7        29.99S HX  91
IONIA          FAIR      90  57  33 CALM      29.99S
KALAMAZOO      SUNNY     91  64  40 SW6       30.01R HX  92
LUDINGTON      CLOUDY    85  67  53 NW6       29.98F
MARSHALL       CLOUDY    90  61  37 NE3       30.00R HX  90
MOUNT PLEASANT SUNNY     92  57  29 CALM      29.98F HX  91
MUSKEGON       CLOUDY    87  72  60 SW8       29.99S HX  93
SOUTH HAVEN    MOSUNNY   87  72  60 NW5       29.99S HX  93
$$
MIZ016>042-232000-
NORTHERN LOWER MICHIGAN

CITY           SKY/WX    TMP DP  RH WIND       PRES   REMARKS
ALPENA         SUNNY     91  53  27 N12       30.00R
BEAVER ISLAND  SUNNY     86  61  42 W6        30.01F
BELLAIRE       MOSUNNY   89  56  32 NE5       29.99F
CADILLAC       SUNNY     89  57  33 W8        30.01F
CHARLEVOIX     SUNNY     83  64  52 NW7       30.03F
FRANKFORT      MOSUNNY   89  57  34 N6        29.98F
GAYLORD        SUNNY     87  55  33 MISG      30.04R
GRAYLING       PTSUNNY   92  55  29 SW3       30.02S HX  90
HARBOR SPRINGS SUNNY     86  60  41 SW7       30.01R
HOUGHTON LAKE  SUNNY     89  54  30 SW8       30.02S
MANISTEE       MOSUNNY   88  64  44 W9        29.98S
OSCODA         SUNNY     83  57  41 E8        29.99R
PELLSTON       MOSUNNY   88  56  33 W6        30.00R
ROGERS CITY    SUNNY     81  58  44 N6        30.02R
TRAVERSE CITY  PTSUNNY   89  60  37 NE8       29.97F
$$
MIZ007>008-015-232000-
EASTERN UPPER MICHIGAN

CITY           SKY/WX    TMP DP  RH WIND       PRES   REMARKS
KINROSS        SUNNY     86  59  39 W8        30.00R
MACKINAC ISLAN SUNNY     83  56  39 SW6       30.01R
NEWBERRY       PTSUNNY   87  60  40 CALM      30.00R HAZE
S. S. MARIE    SUNNY     85  61  44 W8        29.99R
$$
MIZ004>006-011>014-085-232000-
CENTRAL UPPER MICHIGAN

CITY           SKY/WX    TMP DP  RH WIND       PRES   REMARKS
MANISTIQUE     SUNNY     79  66  64 S7        30.01F
ESCANABA       CLOUDY    81  61  50 S8        29.97F
MENOMINEE      CLOUDY    81  64  56 SE7       30.00S
SAWYER-GWINN   SUNNY     84  57  39 W5        30.01F
$$
MIZ001>003-009>011-084-232000-
WESTERN UPPER MICHIGAN

CITY           SKY/WX    TMP DP  RH WIND       PRES   REMARKS
IRON MOUNTAIN  CLOUDY    88  56  33 S9        29.98F
HOUGHTON       MOSUNNY   78  62  57 E9        29.99F
COPPER HARBOR    N/A     77  59  53 VRB5      30.00R
IRONWOOD       CLOUDY    84  63  48 SE6       29.91F
$$

ABBREVIATIONS USED IN REMARKS
   TC - TEMPERATURE IN CELSIUS
  WCI - WIND CHILL INDEX
   HX - HEAT INDEX
  VSB - VISIBILITY




USA.gov is the U.S. government's official web portal to all federal, state and local government web resources and services.